College Station, TX

9:19 PM CDT on May 28, 2017 (GMT -0500)
Easterwood

Weather History for KCLL - December, 2013

Change the Weather History Date:

Saturday, December 7, 2013

  Actual Average Record
Temperature  
Mean Temperature 31 °F 54 °F  
Max Temperature 32 °F 64 °F 84 °F (1924)
Min Temperature 29 °F 43 °F 16 °F (1950)
Degree Days  
Heating Degree Days 34 12  
Month to date heating degree days 79 80  
Since 1 July heating degree days 381 305  
Cooling Degree Days 0 1  
Month to date cooling degree days 7 7  
Year to date cooling degree days 3275 3080  
Moisture  
Dew Point 27 °F    
Average Humidity 82    
Maximum Humidity 92    
Minimum Humidity 72    
Precipitation  
Precipitation T in 0.11 in 1.70 in (1931)
Month to date precipitation 0.04 0.75  
Year to date precipitation 38.63 37.58  
Sea Level Pressure  
Sea Level Pressure 30.37 in    
Wind  
Wind Speed 11 mph (NNW)    
Max Wind Speed 21 mph    
Max Gust Speed 26 mph    
Visibility 8 miles    
Events Rain    
T = Trace of Precipitation, MM = Missing Value Source: NWS Daily Summary

Daily Weather History Graph

Daily Weather History Graph

Search for Another Location

Airport or City:

Trip Planner

Search our weather history database for the weather conditions in past years. The results will help you decide how hot, cold, wet, or windy it might be!

Date:

Astronomy

Dec. 07, 2013 Rise Set
Actual Time 7:09 AM CST 5:24 PM CST
Civil Twilight 6:43 AM CST 5:50 PM CST
Nautical Twilight 6:13 AM CST 6:20 PM CST
Astronomical Twilight 5:44 AM CST 6:49 PM CST
Moon 11:09 AM CST (12/7) 10:51 PM CST (12/7)
Length of Visible Light 11h 07m
Length of Day
10h 14m
Waxing Crescent, 29% of the Moon is Illuminated
Dec 7
Waxing Crescent
Dec 9
First Quarter
Dec 17
Full
Dec 25
Last Quarter
Jan 1
New

Hourly Weather History & Observations

Time (CST) Temp. Windchill Dew Point Humidity Pressure Visibility Wind Dir Wind Speed Gust Speed Precip Events Conditions
12:53 AM 30.0 °F 19.1 °F 23.0 °F 75% 30.43 in 10.0 mi North 15.0 mph 26.5 mph N/A   Overcast
1:53 AM 30.0 °F 19.1 °F 24.1 °F 79% 30.42 in 10.0 mi North 15.0 mph - N/A   Overcast
2:32 AM 28.4 °F 17.5 °F 24.8 °F 86% 30.41 in 10.0 mi North 13.8 mph 23.0 mph N/A   Overcast
2:53 AM 28.9 °F 16.9 °F 24.1 °F 82% 30.42 in 10.0 mi North 17.3 mph - N/A   Overcast
3:53 AM 28.9 °F 17.3 °F 24.1 °F 82% 30.42 in 10.0 mi North 16.1 mph - N/A   Overcast
4:53 AM 30.0 °F 20.5 °F 25.0 °F 82% 30.42 in 10.0 mi North 11.5 mph - N/A   Overcast
5:53 AM 28.9 °F 18.2 °F 25.0 °F 85% 30.42 in 10.0 mi North 13.8 mph - N/A   Overcast
6:53 AM 28.9 °F 19.8 °F 25.0 °F 85% 30.44 in 10.0 mi North 10.4 mph - N/A   Overcast
7:53 AM 30.0 °F 19.5 °F 25.0 °F 82% 30.45 in 9.0 mi North 13.8 mph - N/A   Overcast
8:53 AM 30.0 °F 20.0 °F 25.0 °F 82% 30.46 in 10.0 mi North 12.7 mph - N/A   Overcast
9:53 AM 30.0 °F 19.5 °F 26.1 °F 85% 30.44 in 10.0 mi North 13.8 mph - N/A   Overcast
10:53 AM 30.9 °F 22.8 °F 26.1 °F 82% 30.44 in 10.0 mi NNW 9.2 mph - N/A   Overcast
11:53 AM 32.0 °F 23.6 °F 26.1 °F 79% 30.41 in 10.0 mi North 10.4 mph - N/A   Overcast
12:53 PM 30.9 °F 22.2 °F 26.1 °F 82% 30.38 in 10.0 mi North 10.4 mph - N/A   Overcast
1:53 PM 30.9 °F 21.7 °F 26.1 °F 82% 30.35 in 9.0 mi NNW 11.5 mph - 0.00 in   Overcast
2:53 PM 30.9 °F 22.2 °F 26.1 °F 82% 30.33 in 9.0 mi North 10.4 mph - N/A   Overcast
3:53 PM 30.9 °F 22.8 °F 27.0 °F 85% 30.32 in 8.0 mi North 9.2 mph - N/A   Overcast
4:53 PM 30.9 °F 22.8 °F 27.0 °F 85% 30.31 in 7.0 mi North 9.2 mph - N/A   Overcast
5:11 PM 30.2 °F 22.6 °F 26.6 °F 86% 30.30 in 6.0 mi NNW 8.1 mph - N/A   Overcast
5:53 PM 30.0 °F 23.2 °F 28.0 °F 92% 30.32 in 7.0 mi North 6.9 mph - N/A   Overcast
6:53 PM 30.0 °F 22.4 °F 28.9 °F 96% 30.32 in 5.0 mi NNW 8.1 mph - N/A   Overcast
7:21 PM 30.2 °F 23.4 °F 28.4 °F 93% 30.32 in 3.0 mi NNW 6.9 mph - 0.00 in Rain Light Freezing Rain
7:36 PM 30.2 °F 25.4 °F 28.4 °F 93% 30.32 in 3.0 mi NNW 4.6 mph - 0.00 in Rain Light Freezing Rain
7:53 PM 30.0 °F 22.4 °F 28.9 °F 96% 30.34 in 3.0 mi NNW 8.1 mph - 0.00 in Rain Light Freezing Rain
8:53 PM 30.0 °F 23.2 °F 28.9 °F 96% 30.34 in 4.0 mi NW 6.9 mph - 0.00 in Rain Light Freezing Rain
9:06 PM 30.2 °F 23.4 °F 28.4 °F 93% 30.33 in 5.0 mi NNW 6.9 mph - 0.00 in   Overcast
9:53 PM 30.0 °F 21.7 °F 28.0 °F 92% 30.34 in 4.0 mi North 9.2 mph - 0.00 in   Overcast
10:00 PM 30.2 °F 24.3 °F 28.4 °F 93% 30.32 in 4.0 mi North 5.8 mph - 0.00 in Rain Light Freezing Rain
10:40 PM 30.2 °F 24.3 °F 28.4 °F 93% 30.33 in 7.0 mi NNW 5.8 mph - 0.00 in   Overcast
10:53 PM 30.0 °F 26.5 °F 28.9 °F 96% 30.32 in 6.0 mi NNW 3.5 mph - 0.00 in   Overcast
11:53 PM 30.0 °F 24.1 °F 28.9 °F 96% 30.30 in 7.0 mi NNW 5.8 mph - N/A   Overcast